DateTimeUTC,F1_A11,F1_S11,BsB_S11,BsG_S11,BsR_S11,BbsB_S11,BbsG_S11,BbsR_S11,BaB_A11,BaG_A11,BaR_A11,Tu_S11,T_S11,Uu_S11,U_S11,P_S11,T1_A11
2021-03-02T01:00:00Z,00000200,21000000,,,,,,,-000.09,0000.26,0000.23,15.3,23.4,,00.0,0645.8,30.8
2021-03-02T01:01:00Z,00000200,21000000,,,,,,,0000.09,-000.15,-000.58,15.3,23.4,,00.0,0645.8,30.8
2021-03-02T01:02:00Z,00000200,21000000,,,,,,,-000.17,-000.27,0000.11,15.3,23.4,,00.0,0645.8,30.8
2021-03-02T01:03:00Z,00000200,61000000,,,,,,,0000.30,0000.10,0000.19,15.3,23.4,,00.0,0645.8,30.8
2021-03-02T01:04:00Z,00000200,41000000,0001.82,0000.35,0000.78,0000.71,0000.21,0000.14,0000.59,0000.36,0000.28,15.6,23.2,,00.0,0646.7,30.8
2021-03-02T01:05:00Z,00000200,01000000,0001.03,0000.70,0000.86,0000.22,0000.15,0000.35,0000.19,0000.15,0000.16,15.8,23.2,,00.0,0646.8,30.8
2021-03-02T01:06:00Z,00000200,01000000,0000.91,0000.91,0000.66,0000.20,0000.14,0000.26,0000.52,0000.35,0000.47,15.8,23.2,,00.0,0646.9,30.8
2021-03-02T01:07:00Z,00000200,01000000,0001.12,0000.74,0000.89,0000.42,0000.21,0000.12,-000.01,0000.52,0000.17,15.9,23.2,,00.0,0646.9,30.9
2021-03-02T01:08:00Z,00000200,01000000,0001.03,0000.76,0000.54,0000.46,0000.17,0000.20,0000.41,0000.21,-000.27,15.9,23.2,,00.0,0646.9,30.9
2021-03-02T01:09:00Z,00000200,01000000,0001.55,0000.62,0000.61,0000.73,0000.12,0000.18,0000.03,0000.29,0000.73,16.0,23.2,,00.0,0647.0,30.9
2021-03-02T01:10:00Z,00000200,01000000,0001.07,0000.77,0000.45,0000.03,0000.30,0000.10,0000.22,-000.23,-000.10,16.0,23.2,,00.0,0647.0,30.9
2021-03-02T01:11:00Z,00000200,01000000,0001.35,0000.60,0000.59,0000.36,0000.21,-000.00,0000.26,0000.78,0000.29,16.1,23.3,,00.0,0647.0,30.9
2021-03-02T01:12:00Z,00000200,01000000,0000.64,0000.96,0000.69,-000.03,-000.00,0000.28,0000.59,-000.03,0000.20,16.1,23.3,,00.0,0647.0,30.9
2021-03-02T01:13:00Z,00000200,01000000,0000.92,0000.32,0000.80,0000.60,0000.18,0000.05,0000.63,0000.54,0000.45,16.1,23.3,,00.0,0647.0,30.9
2021-03-02T01:14:00Z,00000200,01000000,0001.33,0000.75,0000.58,0000.46,0000.23,-000.08,0000.20,0000.48,0000.04,16.2,23.3,,00.0,0647.0,30.9
2021-03-02T01:15:00Z,00000200,01000000,0001.96,0000.88,0000.59,0000.28,0000.32,0000.21,0000.65,0000.34,0000.65,16.2,23.3,,00.0,0647.0,30.9
2021-03-02T01:16:00Z,00000200,01000000,0001.52,0000.70,0000.62,0000.79,0000.25,0000.22,0000.43,0000.23,-000.13,16.2,23.4,,00.0,0647.0,30.9
2021-03-02T01:17:00Z,00000200,01000000,0000.85,0000.56,0000.80,0000.32,0000.14,-000.05,0000.53,0000.74,0000.36,16.3,23.4,,00.0,0647.0,30.9
2021-03-02T01:18:00Z,00000200,01000000,0001.33,0000.78,0000.64,0000.41,0000.37,0000.03,0000.55,0000.36,0000.37,16.3,23.4,,00.0,0647.0,30.9
2021-03-02T01:19:00Z,00000200,01000000,0000.69,0000.94,0000.49,-000.04,0000.31,0000.09,0000.46,0000.78,0000.80,16.4,23.4,,00.0,0647.0,30.9
2021-03-02T01:20:00Z,00000200,01000000,0001.28,0001.05,0000.71,0000.52,0000.26,0000.11,0000.35,-000.01,0000.14,16.4,23.4,,00.0,0647.1,30.9
2021-03-02T01:21:00Z,00000200,01000000,0001.06,0000.80,0000.58,0000.75,0000.18,0000.01,0000.38,0000.89,0000.34,16.4,23.5,,00.0,0647.0,30.9
2021-03-02T01:22:00Z,00000200,01000000,0001.47,0000.74,0000.77,0000.07,0000.12,0000.09,0000.57,0000.36,0000.21,16.4,23.5,,00.0,0647.1,30.9
2021-03-02T01:23:00Z,00000200,01000000,0001.34,0000.92,0000.66,0000.41,0000.08,0000.13,0000.41,0000.33,0000.25,16.4,23.5,,00.0,0647.0,30.9
2021-03-02T01:24:00Z,00000200,01000000,0001.36,0000.87,0000.48,0000.21,0000.33,0000.12,0000.38,0000.63,0000.54,16.4,23.4,,00.0,0647.0,30.9
2021-03-02T01:25:00Z,00000200,01000000,0001.41,0001.01,0000.52,0000.30,0000.33,-000.06,0000.46,0000.19,0000.08,16.3,23.4,,00.0,0647.0,30.9
2021-03-02T01:26:00Z,00000200,01000000,0001.24,0000.65,0000.75,0000.64,0000.33,-000.08,0000.44,0000.53,0000.60,16.2,23.4,,00.0,0647.0,30.9
2021-03-02T01:27:00Z,00000200,01000000,0001.54,0000.97,0000.53,0000.12,0000.13,-000.06,0000.59,0000.44,-000.09,16.1,23.3,,00.0,0647.0,30.9
2021-03-02T01:28:00Z,00000200,01000000,0001.45,0000.49,0000.36,0000.34,0000.16,-000.11,0000.45,0000.32,0000.35,16.1,23.3,,00.0,0646.9,30.9
2021-03-02T01:29:00Z,00000200,01000000,0001.31,0001.04,0000.59,0000.48,0000.16,0000.09,0000.45,0000.30,0000.32,16.0,23.3,,00.0,0646.9,30.9
2021-03-02T01:30:00Z,00000200,01000000,0001.46,0000.72,0000.71,-000.00,0000.27,0000.03,0000.82,0000.76,0000.36,16.0,23.2,,00.0,0646.8,30.9
2021-03-02T01:31:00Z,00000200,01000000,0001.07,0001.20,0000.68,0000.37,0000.12,0000.27,0000.54,0000.23,0000.49,16.0,23.2,,00.0,0646.8,30.9
2021-03-02T01:32:00Z,00000200,01000000,0001.76,0000.65,0000.40,0000.02,0000.29,0000.12,0000.54,0000.69,0000.55,16.1,23.2,,00.0,0646.8,30.9
2021-03-02T01:33:00Z,00000200,01000000,0000.92,0000.97,0000.73,0000.34,0000.09,0000.37,0000.24,0000.21,-000.18,16.1,23.2,,00.0,0646.8,30.9
2021-03-02T01:34:00Z,00000200,01000000,0001.35,0001.01,0000.83,0000.45,0000.17,0000.35,0000.29,0000.23,0000.15,16.1,23.3,,00.0,0646.9,30.8
2021-03-02T01:35:00Z,00000200,01000000,0001.53,0000.87,0000.72,0000.47,0000.25,0000.13,0000.73,0000.79,0000.81,16.2,23.3,,00.0,0646.9,30.8
2021-03-02T01:36:00Z,00000200,01000000,0001.16,0000.76,0000.58,0000.31,0000.29,0000.14,0000.36,0000.24,0000.28,16.2,23.3,,00.0,0646.9,30.9
2021-03-02T01:37:00Z,00000200,01000000,0001.11,0000.80,0000.78,0000.26,0000.36,0000.17,0000.40,0000.19,0000.03,16.3,23.3,,00.0,0646.9,30.9
2021-03-02T01:38:00Z,00000200,01000000,0001.50,0000.78,0000.70,0000.63,0000.07,0000.13,0000.58,0000.77,0000.26,16.3,23.4,,00.0,0646.9,30.9
2021-03-02T01:39:00Z,00000200,01000000,0001.17,0001.04,0000.85,0000.34,0000.06,0000.07,-000.01,-000.31,0000.57,16.4,23.4,,00.0,0646.9,30.9
2021-03-02T01:40:00Z,00000200,01000000,0001.16,0000.57,0000.81,0000.62,0000.23,0000.06,0000.45,0000.86,0000.19,16.4,23.4,,00.0,0646.9,30.9
2021-03-02T01:41:00Z,00000200,01000000,0001.68,0000.90,0000.33,0000.45,0000.37,0000.10,0000.22,0000.27,0000.20,16.4,23.4,,00.0,0646.9,30.9
2021-03-02T01:42:00Z,00000200,01000000,0001.48,0000.86,0001.01,0000.51,0000.27,0000.03,0000.92,0000.78,0000.29,16.4,23.4,,00.0,0646.9,30.9
2021-03-02T01:43:00Z,00000200,01000000,0001.17,0000.92,0000.64,0000.40,0000.14,0000.35,0000.75,0000.40,0000.64,16.3,23.4,,00.0,0646.9,30.9
2021-03-02T01:44:00Z,00000200,01000000,0001.18,0000.96,0000.72,0000.32,0000.02,0000.21,0000.42,0000.48,0000.18,16.2,23.3,,00.0,0646.9,30.9
2021-03-02T01:45:00Z,00000200,01000000,0001.33,0000.75,0000.69,-000.23,0000.50,0000.18,0000.46,0000.47,0000.10,16.2,23.3,,00.0,0646.9,30.9
2021-03-02T01:46:00Z,00000200,01000000,0001.07,0000.80,0000.78,0000.09,0000.31,0000.38,0000.31,0000.08,0000.54,16.2,23.3,,00.0,0646.9,30.9
2021-03-02T01:47:00Z,00000200,01000000,0001.35,0001.12,0000.47,0000.35,0000.25,0000.11,0000.32,0000.18,0000.16,16.3,23.3,,00.0,0646.9,30.9
2021-03-02T01:48:00Z,00000200,01000000,0001.31,0000.95,0000.49,0000.43,0000.23,0000.07,0000.58,0000.41,0000.51,16.3,23.3,,00.0,0647.0,30.9
2021-03-02T01:49:00Z,00000200,01000000,0001.11,0001.01,0000.63,0000.08,0000.12,0000.23,0000.50,0000.67,0000.01,16.3,23.3,,00.0,0647.0,30.9
2021-03-02T01:50:00Z,00000200,01000000,0001.84,0000.69,0000.36,0000.04,0000.32,0000.26,0000.39,0000.68,0000.46,16.4,23.4,,00.0,0647.0,30.9
2021-03-02T01:51:00Z,00000200,01000000,0001.67,0000.62,0000.87,0000.45,0000.35,0000.22,0000.31,-000.01,0000.24,16.4,23.4,,00.0,0647.0,30.9
2021-03-02T01:52:00Z,00000200,01000000,0001.25,0000.93,0000.48,-000.02,0000.16,0000.26,0000.48,0000.36,0000.09,16.4,23.4,,00.0,0647.1,30.9
2021-03-02T01:53:00Z,00000200,01000000,0001.73,0000.92,0000.56,0000.03,0000.26,0000.09,0000.62,0000.36,0000.32,16.5,23.5,,00.0,0647.1,30.9
2021-03-02T01:54:00Z,00000200,01000000,0001.37,0001.13,0000.47,0000.40,0000.20,-000.20,0000.34,0000.78,0000.33,16.5,23.5,,00.0,0647.1,30.9
2021-03-02T01:55:00Z,00000200,01000000,0001.58,0000.99,0000.63,-000.13,0000.35,0000.41,0000.18,0000.30,0000.49,16.5,23.4,,00.0,0647.1,30.9
2021-03-02T01:56:00Z,00000200,01000000,0001.10,0000.82,0000.73,-000.06,0000.26,0000.27,0000.70,0000.38,0000.11,16.5,23.4,,00.0,0647.0,30.9
2021-03-02T01:57:00Z,00000200,41000000,,,,,,,0000.04,0000.07,-000.03,16.5,23.4,,00.0,0647.0,30.9
2021-03-02T01:58:00Z,00000200,61000000,,,,,,,-000.48,-000.20,0000.15,16.0,23.6,,00.0,0646.1,30.9
2021-03-02T01:59:00Z,00000200,21000000,,,,,,,0000.22,0000.13,-000.07,15.9,23.7,,00.0,0646.1,30.9
